Regional Weather Roundup
Issued by NWS

Home | Current Version | Previous Version | Graphics & Text | Print | Product List | Glossary On
Versions: 1 2 3 4 5 6 7 8 9 10 11 12 13 14 15 16 17 18 19 20 21 22 23 24 25 26 27
000
ASUS45 KTFX 222110
RWRMT
MONTANA REGIONAL WEATHER ROUNDUP
NATIONAL WEATHER SERVICE GREAT FALLS MT
300 PM MDT SUN OCT 22 2017

NOTE: "FAIR" INDICATES FEW OR NO CLOUDS BELOW 12000 FEET WITH NO
SIGNIFICANT WEATHER AND/OR OBSTRUCTIONS TO VISIBILITY.

MTZ001>007-043-222200-
WEST OF THE DIVIDE

CITY           SKY/WX    TMP DP  RH WIND       PRES   REMARKS
KALISPELL      PTSUNNY   56  35  45 SW18G30   29.94R
MISSOULA       PTSUNNY   57  34  41 W18G28    30.04R
BUTTE          LGT RAIN  46  40  79 NW13G22   30.05R
MULLAN PASS    PTSUNNY   35  27  72 W9G31     30.06R WCI  28
$$

MTZ008-052>055-222200-
SOUTHWEST MONTANA

CITY           SKY/WX    TMP DP  RH WIND       PRES   REMARKS
BOZEMAN        CLOUDY    61  34  36 SW26G37   29.93F
DILLON         CLOUDY    58  34  40 SW30G40   30.04R
W YELLOWSTONE  CLOUDY    39  36  87 SW16G30   30.14F WCI  30
ENNIS          CLOUDY    55  36  47 S25G33    30.07S
$$

MTZ009-010-012-014-046-048-049-054-222200-
EAST SLOPES AND CENTRAL MONTANA

CITY           SKY/WX    TMP DP  RH WIND       PRES   REMARKS
CUT BANK       SUNNY     53  27  36 W39G56    29.74R
GREAT FALLS    MOSUNNY   55  35  47 W38G58    29.80R
MALMSTROM AFB  MOSUNNY   56  36  47 W38G58    29.82R
HELENA         SUNNY     56  33  42 W28G40    29.94R
FAIRFIELD        N/A     56  31  38 W29G38    29.83
$$

MTZ011-013-016-021-045-047-050-051-222200-
NORTH CENTRAL MONTANA

CITY           SKY/WX    TMP DP  RH WIND       PRES   REMARKS
HAVRE          CLOUDY    63  33  32 W44G54    29.66R
LEWISTOWN      SUNNY     62  29  28 W49G61    29.76R
N BAR RANCH      N/A     63  25  23 W36G46    29.75F
$$

MTZ017>020-022>027-061-062-222200-
NORTHEAST MONTANA

CITY           SKY/WX    TMP DP  RH WIND       PRES   REMARKS
GLASGOW        MOSUNNY   66  38  35 W26G37    29.57R
JORDAN           N/A     65  33  30 W31G55    29.64R
SIDNEY         CLOUDY    68  36  30 W33G43    29.56F
WOLF POINT     MOSUNNY   68  36  30 W21G38    29.57R
MALTA          MOSUNNY   61  37  41 W38G53    29.61R
$$

MTZ028>42-056>058-222200-
SOUTHCENTRAL AND SOUTHEAST MONTANA

CITY           SKY/WX    TMP DP  RH WIND       PRES   REMARKS
BAKER          CLOUDY    64  35  34 W31G53    29.72S
BILLINGS       CLOUDY    66  33  29 SW29G39   29.81R
LIVINGSTON     CLOUDY    58  34  40 SW39G55   29.87S
MILES CITY     CLOUDY    70  35  27 W36G45    29.67F
$$

REGIONAL REPORTS...DAKOTAS

CITY           SKY/WX    TMP DP  RH WIND       PRES   REMARKS
WILLISTON      MOSUNNY   60  40  47 SW13      29.57F
MINOT          CLOUDY    57  34  41 SW14      29.59F
DICKINSON      CLOUDY    65  33  30 W31G43    29.64F
BEACH            N/A     66  32  28 W28G43    29.68S
CROSBY           N/A     54  46  76 SW16G23   29.54S
TIOGA          CLOUDY    54  48  82 SW10      29.59F
BISMARCK       CLOUDY    64  34  32 SW16      29.69F
GRAND FORKS    CLOUDY    64  26  23 SW17G28   29.69F
FARGO          PTSUNNY   62  29  28 SW20G29   29.77F
BUFFALO SD       N/A     70  32  24 W37G52    29.69F
RAPID CITY     PTSUNNY   68  28  22 SW15      29.86S
$$

REGIONAL REPORTS...WYOMING/IDAHO/WASHINGTON

CITY           SKY/WX    TMP DP  RH WIND       PRES   REMARKS
GILLETTE       CLOUDY    65  28  24 SW23      29.89F
SHERIDAN       CLOUDY    67  29  24 W17G32    29.86S
BUFFALO WY     CLOUDY    63  24  22 E17       29.90S
CODY           CLOUDY    57  34  41 W15G28    29.96F
YELLOWSTONE LA   N/A     36  33  89 W8G23     30.18F WCI  30
IDAHO FALLS    MOSUNNY   57  38  48 SW26G41   30.20F
SALMON         MOSUNNY   59  37  44 SW22G30   30.08R
BOISE          CLOUDY    62  42  47 SE6       30.26F
SPOKANE        PTSUNNY   54  38  54 SW22G35   30.10R
$$

REGIONAL REPORTS...ALBERTA

CITY           SKY/WX    TMP DP  RH WIND       PRES   REMARKS
EDMONTON       SUNNY     50  36  57 NW12G20   29.56R
CALGARY        MOSUNNY   55  19  24 W24G37    29.61R
LETHBRIDGE     MOSUNNY   55  27  33 W44G58    29.66R
MEDICINE HAT   MOSUNNY   61  34  36 W33G41    29.55S
$$

REGIONAL REPORTS...SASKATCHEWAN

CITY           SKY/WX    TMP DP  RH WIND       PRES   REMARKS
SWIFT CURRENT  MOSUNNY   57  28  33 NW32G40   29.47R
REGINA         MOSUNNY   61  36  39 W21G31    29.40F
SASKATOON      LGT RAIN  41  39  93 NE3       29.47R
$$




USA.gov is the U.S. government's official web portal to all federal, state and local government web resources and services.